CSN6212 ZHHH-ZYTL

Flight info

Callsign CSN6212
Flight time 1h 45m
Altitude 26600
Route BIVIP7E BIVIP R343 MADUK W73 MABOS W543 OF W178 RUXEL W529 GFK DCT URBAD W172 IGDEG W173 NIXEP NIX07A
Aircraft A320/M-SDE3FGHIRWY/LB1

Departure

Time 2026-04-16 13:36
Airport Wuhan Tianhe International Airport (ZHHH)

Arrival

Time 2026-04-16 15:22
Airport Dalian Zhoushuizi International Airport (ZYTL)
Time Latitude Longitude Altitude Speed Heading
2026-04-16 13:00 30.77208 114.21799 108 ft 0 kts 41°
2026-04-16 13:24 30.77199 114.21790 107 ft 3 kts 41°
2026-04-16 13:24 30.77185 114.21776 106 ft 3 kts 44°
2026-04-16 13:25 30.77173 114.21759 107 ft 3 kts 82°
2026-04-16 13:25 30.77176 114.21740 107 ft 3 kts 130°
2026-04-16 13:25 30.77188 114.21724 106 ft 2 kts 132°
2026-04-16 13:25 30.77191 114.21721 105 ft 0 kts 131°
2026-04-16 13:28 30.77190 114.21723 106 ft 1 kts 131°
2026-04-16 13:28 30.77172 114.21746 107 ft 7 kts 131°
2026-04-16 13:28 30.77129 114.21803 107 ft 12 kts 131°
2026-04-16 13:29 30.77065 114.21888 107 ft 15 kts 131°
2026-04-16 13:29 30.77004 114.21937 107 ft 10 kts 189°
2026-04-16 13:29 30.76946 114.21886 107 ft 12 kts 221°
2026-04-16 13:29 30.76873 114.21812 107 ft 16 kts 221°
2026-04-16 13:30 30.76782 114.21718 107 ft 19 kts 221°
2026-04-16 13:30 30.76679 114.21614 107 ft 20 kts 222°
2026-04-16 13:30 30.76568 114.21499 107 ft 22 kts 221°
2026-04-16 13:30 30.76448 114.21375 107 ft 24 kts 221°
2026-04-16 13:31 30.76317 114.21242 107 ft 26 kts 221°
2026-04-16 13:31 30.76189 114.21112 108 ft 19 kts 221°
2026-04-16 13:31 30.76107 114.21019 108 ft 9 kts 244°
2026-04-16 13:31 30.76137 114.20958 107 ft 10 kts 312°
2026-04-16 13:32 30.76197 114.20877 107 ft 16 kts 311°
2026-04-16 13:32 30.76285 114.20762 107 ft 21 kts 311°
2026-04-16 13:32 30.76388 114.20627 107 ft 23 kts 311°
2026-04-16 13:32 30.76498 114.20483 106 ft 25 kts 311°
2026-04-16 13:33 30.76615 114.20329 106 ft 26 kts 311°
2026-04-16 13:33 30.76739 114.20167 105 ft 28 kts 311°
2026-04-16 13:33 30.76853 114.20015 103 ft 20 kts 311°
2026-04-16 13:33 30.76944 114.19896 105 ft 18 kts 311°
2026-04-16 13:34 30.77038 114.19851 105 ft 14 kts 10°
2026-04-16 13:34 30.77107 114.19805 105 ft 13 kts 310°
2026-04-16 13:34 30.77159 114.19734 104 ft 10 kts 313°
2026-04-16 13:34 30.77212 114.19667 103 ft 10 kts 313°
2026-04-16 13:35 30.77256 114.19676 105 ft 4 kts 40°
2026-04-16 13:35 30.77257 114.19676 105 ft 0 kts 40°
2026-04-16 13:35 30.77373 114.19792 105 ft 55 kts 41°
2026-04-16 13:36 30.77821 114.20252 108 ft 113 kts 41°
2026-04-16 13:36 30.78528 114.20973 113 ft 155 kts 41°
2026-04-16 13:36 30.79385 114.21862 504 ft 163 kts 41°
2026-04-16 13:36 30.80238 114.22727 1101 ft 162 kts 40°
2026-04-16 13:37 30.81077 114.23591 1706 ft 161 kts 40°
2026-04-16 13:37 30.81921 114.24467 2195 ft 163 kts 40°
2026-04-16 13:37 30.82770 114.25343 2711 ft 163 kts 39°
2026-04-16 13:37 30.83616 114.26213 3239 ft 162 kts 39°
2026-04-16 13:38 30.84501 114.27119 3493 ft 181 kts 39°
2026-04-16 13:38 30.85486 114.28142 3764 ft 198 kts 39°
2026-04-16 13:38 30.86565 114.29249 4033 ft 218 kts 39°
2026-04-16 13:38 30.87355 114.30044 4197 ft 235 kts 39°
2026-04-16 13:39 30.88648 114.31343 4651 ft 254 kts 39°
2026-04-16 13:39 30.90462 114.33177 5600 ft 263 kts 39°
2026-04-16 13:39 30.91865 114.34558 6456 ft 265 kts 38°
2026-04-16 13:39 30.93277 114.35969 7198 ft 270 kts 39°
2026-04-16 13:40 30.94692 114.37427 7903 ft 276 kts 39°
2026-04-16 13:40 30.95672 114.38451 8396 ft 280 kts 39°
2026-04-16 13:40 30.97131 114.39980 9113 ft 284 kts 39°
2026-04-16 13:40 30.98597 114.41510 9836 ft 289 kts 39°
2026-04-16 13:41 31.00120 114.43093 10311 ft 302 kts 39°
2026-04-16 13:41 31.01754 114.44780 10479 ft 325 kts 39°
2026-04-16 13:41 31.03504 114.46583 10609 ft 347 kts 39°
2026-04-16 13:41 31.05373 114.48506 10736 ft 368 kts 39°
2026-04-16 13:42 31.07318 114.50513 11141 ft 377 kts 39°
2026-04-16 13:42 31.09291 114.52558 11693 ft 382 kts 40°
2026-04-16 13:42 31.11054 114.54921 12233 ft 390 kts 54°
2026-04-16 13:42 31.12234 114.57794 12754 ft 398 kts 72°
2026-04-16 13:43 31.12637 114.61011 13259 ft 405 kts 87°
2026-04-16 13:43 31.12689 114.64314 13782 ft 409 kts 88°
2026-04-16 13:43 31.12707 114.67645 14255 ft 412 kts 89°
2026-04-16 13:43 31.12710 114.70993 14734 ft 415 kts 89°
2026-04-16 13:44 31.12707 114.74382 15214 ft 418 kts 89°
2026-04-16 13:44 31.12708 114.77791 15701 ft 421 kts 89°
2026-04-16 13:44 31.12719 114.81222 16181 ft 425 kts 89°
2026-04-16 13:44 31.12738 114.84684 16673 ft 428 kts 89°
2026-04-16 13:45 31.12760 114.88172 17166 ft 431 kts 89°
2026-04-16 13:45 31.12779 114.91677 17667 ft 434 kts 89°
2026-04-16 13:45 31.12797 114.95216 18173 ft 438 kts 89°
2026-04-16 13:45 31.12812 114.98729 18596 ft 441 kts 89°
2026-04-16 13:46 31.12826 115.02316 19028 ft 444 kts 89°
2026-04-16 13:46 31.12842 115.05933 19455 ft 447 kts 89°
2026-04-16 13:46 31.12854 115.09574 19899 ft 450 kts 89°
2026-04-16 13:46 31.12862 115.13244 20322 ft 453 kts 89°
2026-04-16 13:47 31.12868 115.16931 20729 ft 456 kts 89°
2026-04-16 13:47 31.12875 115.20647 21133 ft 459 kts 89°
2026-04-16 13:47 31.12899 115.24386 21504 ft 462 kts 87°
2026-04-16 13:47 31.13265 115.28118 21885 ft 464 kts 78°
2026-04-16 13:48 31.14104 115.31758 22255 ft 466 kts 69°
2026-04-16 13:48 31.15252 115.35303 22600 ft 468 kts 68°
2026-04-16 13:48 31.16413 115.38866 22956 ft 471 kts 68°
2026-04-16 13:48 31.17577 115.42452 23304 ft 474 kts 68°
2026-04-16 13:49 31.18744 115.46065 23632 ft 477 kts 68°
2026-04-16 13:49 31.19915 115.49700 23899 ft 480 kts 68°
2026-04-16 13:49 31.21094 115.53366 24161 ft 483 kts 68°
2026-04-16 13:49 31.22282 115.57054 24433 ft 487 kts 68°
2026-04-16 13:50 31.23464 115.60720 24694 ft 490 kts 68°
2026-04-16 13:50 31.24664 115.64455 25016 ft 492 kts 68°
2026-04-16 13:50 31.25865 115.68199 25403 ft 493 kts 68°
2026-04-16 13:50 31.27066 115.71957 25754 ft 494 kts 68°
2026-04-16 13:51 31.28268 115.75724 26117 ft 495 kts 69°
2026-04-16 13:51 31.29474 115.79499 26464 ft 498 kts 68°
2026-04-16 13:51 31.30689 115.83302 26580 ft 502 kts 68°
2026-04-16 13:51 31.31921 115.87159 26598 ft 511 kts 68°
2026-04-16 13:52 31.33178 115.91084 26595 ft 517 kts 68°
2026-04-16 13:52 31.34452 115.95016 26593 ft 518 kts 68°
2026-04-16 13:52 31.35741 115.98956 26592 ft 519 kts 68°
2026-04-16 13:52 31.37038 116.02902 26592 ft 519 kts 68°
2026-04-16 13:53 31.38330 116.06841 26588 ft 519 kts 68°
2026-04-16 13:53 31.39622 116.10789 26588 ft 520 kts 68°
2026-04-16 13:53 31.40910 116.14741 26591 ft 520 kts 68°
2026-04-16 13:53 31.42191 116.18693 26587 ft 519 kts 68°
2026-04-16 13:54 31.43468 116.22650 26589 ft 519 kts 68°
2026-04-16 13:54 31.44724 116.26551 26584 ft 519 kts 68°
2026-04-16 13:54 31.45996 116.30505 26582 ft 519 kts 68°
2026-04-16 13:54 31.47269 116.34457 26578 ft 519 kts 68°
2026-04-16 13:55 31.48543 116.38409 26576 ft 519 kts 68°
2026-04-16 13:55 31.49816 116.42359 26573 ft 519 kts 68°
2026-04-16 13:55 31.51089 116.46312 26571 ft 518 kts 68°
2026-04-16 13:55 31.52360 116.50268 26566 ft 518 kts 68°
2026-04-16 13:56 31.53625 116.54217 26562 ft 518 kts 68°
2026-04-16 13:56 31.54892 116.58179 26565 ft 519 kts 68°
2026-04-16 13:56 31.56155 116.62134 26564 ft 519 kts 68°
2026-04-16 13:56 31.57423 116.66101 26559 ft 519 kts 68°
2026-04-16 13:57 31.58688 116.70058 26561 ft 518 kts 68°
2026-04-16 13:57 31.59951 116.74018 26560 ft 519 kts 68°
2026-04-16 13:57 31.61214 116.77981 26562 ft 519 kts 68°
2026-04-16 13:58 31.63732 116.85914 26557 ft 519 kts 68°
2026-04-16 13:58 31.64988 116.89879 26556 ft 519 kts 68°
2026-04-16 13:58 31.66245 116.93848 26557 ft 519 kts 68°
2026-04-16 13:58 31.67483 116.97770 26561 ft 520 kts 69°
2026-04-16 13:59 31.68737 117.01749 26562 ft 520 kts 69°
2026-04-16 13:59 31.69984 117.05734 26564 ft 520 kts 69°
2026-04-16 13:59 31.71221 117.09716 26566 ft 520 kts 69°
2026-04-16 13:59 31.72450 117.13709 26567 ft 520 kts 69°
2026-04-16 14:00 31.73678 117.17707 26566 ft 520 kts 69°
2026-04-16 14:00 31.74902 117.21698 26566 ft 520 kts 69°
2026-04-16 14:00 31.76082 117.25714 26562 ft 520 kts 73°
2026-04-16 14:00 31.76861 117.29867 26560 ft 521 kts 82°
2026-04-16 14:01 31.77141 117.34103 26556 ft 520 kts 91°
2026-04-16 14:01 31.76950 117.38342 26557 ft 519 kts 96°
2026-04-16 14:01 31.76652 117.42562 26558 ft 519 kts 96°
2026-04-16 14:01 31.76354 117.46789 26558 ft 519 kts 96°
2026-04-16 14:02 31.76058 117.51021 26559 ft 520 kts 96°
2026-04-16 14:02 31.75769 117.55199 26558 ft 520 kts 96°
2026-04-16 14:02 31.75474 117.59487 26559 ft 520 kts 96°
2026-04-16 14:02 31.75186 117.63661 26557 ft 520 kts 96°
2026-04-16 14:03 31.74890 117.67904 26555 ft 520 kts 96°
2026-04-16 14:03 31.74593 117.72140 26555 ft 520 kts 96°
2026-04-16 14:03 31.74292 117.76373 26552 ft 520 kts 96°
2026-04-16 14:03 31.73988 117.80607 26553 ft 520 kts 96°
2026-04-16 14:04 31.73682 117.84846 26549 ft 521 kts 96°
2026-04-16 14:04 31.73375 117.89087 26546 ft 521 kts 96°
2026-04-16 14:04 31.73069 117.93319 26547 ft 521 kts 96°
2026-04-16 14:04 31.72757 117.97558 26548 ft 521 kts 97°
2026-04-16 14:05 31.72446 118.01806 26548 ft 522 kts 96°
2026-04-16 14:05 31.72325 118.06065 26554 ft 523 kts 89°
2026-04-16 14:05 31.72706 118.10315 26548 ft 524 kts 79°
2026-04-16 14:05 31.73590 118.14466 26547 ft 524 kts 71°
2026-04-16 14:06 31.74942 118.18429 26549 ft 522 kts 64°
2026-04-16 14:06 31.76466 118.22309 26550 ft 523 kts 64°
2026-04-16 14:06 31.77980 118.26185 26547 ft 523 kts 64°
2026-04-16 14:06 31.79493 118.30072 26549 ft 523 kts 64°
2026-04-16 14:07 31.81005 118.33965 26549 ft 523 kts 64°
2026-04-16 14:07 31.82538 118.37846 26550 ft 523 kts 60°
2026-04-16 14:07 31.84539 118.41381 26552 ft 517 kts 46°
2026-04-16 14:07 31.87137 118.44248 26555 ft 509 kts 31°
2026-04-16 14:08 31.90134 118.46279 26554 ft 499 kts 17°
2026-04-16 14:08 31.93415 118.47446 26558 ft 488 kts
2026-04-16 14:08 31.96757 118.47864 26558 ft 483 kts 359°
2026-04-16 14:08 32.00104 118.48192 26559 ft 483 kts 359°
2026-04-16 14:09 32.03455 118.48528 26563 ft 483 kts 359°
2026-04-16 14:09 32.06805 118.48866 26566 ft 483 kts 359°
2026-04-16 14:09 32.10149 118.49207 26568 ft 483 kts 359°
2026-04-16 14:09 32.13497 118.49550 26570 ft 483 kts 359°
2026-04-16 14:10 32.16842 118.49893 26574 ft 483 kts 359°
2026-04-16 14:10 32.20191 118.50240 26565 ft 483 kts 359°
2026-04-16 14:10 32.23535 118.50589 26578 ft 483 kts 359°
2026-04-16 14:10 32.26878 118.50937 26576 ft 482 kts 359°
2026-04-16 14:11 32.30218 118.51284 26584 ft 482 kts 359°
2026-04-16 14:11 32.33564 118.51630 26582 ft 482 kts 359°
2026-04-16 14:11 32.36904 118.51975 26586 ft 482 kts 359°
2026-04-16 14:11 32.40246 118.52321 26587 ft 482 kts 359°
2026-04-16 14:12 32.43583 118.52666 26580 ft 482 kts 359°
2026-04-16 14:12 32.46923 118.53012 26593 ft 481 kts 359°
2026-04-16 14:12 32.50258 118.53433 26594 ft 485 kts
2026-04-16 14:12 32.53576 118.54250 26595 ft 487 kts
2026-04-16 14:13 32.56880 118.55111 26593 ft 487 kts
2026-04-16 14:13 32.60189 118.55974 26597 ft 487 kts
2026-04-16 14:13 32.63504 118.56838 26597 ft 487 kts
2026-04-16 14:13 32.66810 118.57693 26596 ft 486 kts
2026-04-16 14:14 32.70122 118.58445 26596 ft 484 kts
2026-04-16 14:14 32.73445 118.59045 26598 ft 482 kts
2026-04-16 14:14 32.76729 118.59534 26598 ft 481 kts
2026-04-16 14:14 32.80046 118.59982 26595 ft 480 kts
2026-04-16 14:15 32.83368 118.60429 26594 ft 480 kts
2026-04-16 14:15 32.86692 118.60904 26590 ft 481 kts
2026-04-16 14:15 32.90009 118.61413 26592 ft 481 kts
2026-04-16 14:15 32.93328 118.61951 26595 ft 481 kts
2026-04-16 14:16 32.96641 118.62502 26597 ft 481 kts
2026-04-16 14:16 32.99956 118.63054 26596 ft 481 kts
2026-04-16 14:16 33.03270 118.63602 26594 ft 481 kts
2026-04-16 14:16 33.06588 118.64141 26601 ft 481 kts
2026-04-16 14:17 33.09898 118.64671 26601 ft 480 kts
2026-04-16 14:17 33.13213 118.65200 26602 ft 480 kts
2026-04-16 14:17 33.16522 118.65726 26606 ft 480 kts
2026-04-16 14:17 33.19838 118.66255 26603 ft 480 kts
2026-04-16 14:18 33.23152 118.66786 26603 ft 480 kts
2026-04-16 14:18 33.26418 118.67311 26603 ft 480 kts
2026-04-16 14:18 33.29730 118.67843 26603 ft 480 kts
2026-04-16 14:18 33.33043 118.68375 26602 ft 480 kts
2026-04-16 14:19 33.36352 118.68906 26605 ft 480 kts
2026-04-16 14:19 33.39665 118.69438 26603 ft 480 kts
2026-04-16 14:19 33.42978 118.69968 26602 ft 480 kts
2026-04-16 14:19 33.46290 118.70497 26604 ft 481 kts
2026-04-16 14:20 33.49606 118.71024 26605 ft 481 kts
2026-04-16 14:20 33.52919 118.71545 26603 ft 481 kts
2026-04-16 14:20 33.56239 118.72069 26605 ft 481 kts
2026-04-16 14:20 33.59554 118.72595 26607 ft 481 kts
2026-04-16 14:21 33.62876 118.73125 26608 ft 481 kts
2026-04-16 14:21 33.66189 118.73655 26609 ft 481 kts
2026-04-16 14:21 33.69464 118.74180 26609 ft 481 kts
2026-04-16 14:21 33.72776 118.74714 26608 ft 481 kts
2026-04-16 14:22 33.76089 118.75250 26609 ft 481 kts
2026-04-16 14:22 33.79404 118.75783 26607 ft 480 kts
2026-04-16 14:22 33.82715 118.76315 26605 ft 480 kts
2026-04-16 14:22 33.86030 118.76846 26601 ft 480 kts
2026-04-16 14:23 33.89342 118.77374 26601 ft 480 kts
2026-04-16 14:23 33.92661 118.77902 26603 ft 481 kts
2026-04-16 14:23 33.95973 118.78431 26601 ft 481 kts
2026-04-16 14:23 33.99286 118.78959 26601 ft 481 kts
2026-04-16 14:24 34.02601 118.79572 26603 ft 485 kts
2026-04-16 14:24 34.05832 118.80854 26605 ft 494 kts 19°
2026-04-16 14:24 34.08845 118.82916 26605 ft 503 kts 31°
2026-04-16 14:24 34.11500 118.85711 26601 ft 510 kts 44°
2026-04-16 14:25 34.13649 118.89140 26600 ft 516 kts 57°
2026-04-16 14:25 34.15205 118.93048 26593 ft 518 kts 66°
2026-04-16 14:25 34.16678 118.97010 26593 ft 517 kts 59°
2026-04-16 14:25 34.18596 119.00672 26604 ft 514 kts 50°
2026-04-16 14:26 34.20892 119.03879 26597 ft 510 kts 41°
2026-04-16 14:26 34.23565 119.06657 26600 ft 505 kts 32°
2026-04-16 14:26 34.26510 119.08914 26603 ft 499 kts 22°
2026-04-16 14:26 34.29607 119.10773 26601 ft 497 kts 21°
2026-04-16 14:27 34.32716 119.12624 26607 ft 498 kts 21°
2026-04-16 14:27 34.35821 119.14480 26609 ft 498 kts 21°
2026-04-16 14:27 34.38927 119.16361 26609 ft 500 kts 23°
2026-04-16 14:27 34.41918 119.18533 26606 ft 503 kts 27°
2026-04-16 14:28 34.44896 119.20763 26604 ft 503 kts 27°
2026-04-16 14:28 34.47877 119.22990 26607 ft 503 kts 27°
2026-04-16 14:28 34.50856 119.25212 26611 ft 503 kts 27°
2026-04-16 14:28 34.53841 119.27435 26609 ft 503 kts 27°
2026-04-16 14:29 34.56822 119.29657 26610 ft 504 kts 27°
2026-04-16 14:29 34.59806 119.31885 26613 ft 504 kts 27°
2026-04-16 14:29 34.62753 119.34090 26609 ft 504 kts 27°
2026-04-16 14:29 34.65735 119.36322 26611 ft 504 kts 27°
2026-04-16 14:30 34.68720 119.38558 26613 ft 504 kts 27°
2026-04-16 14:30 34.71704 119.40796 26618 ft 504 kts 27°
2026-04-16 14:30 34.74696 119.43040 26619 ft 505 kts 27°
2026-04-16 14:30 34.77683 119.45284 26619 ft 505 kts 27°
2026-04-16 14:31 34.80671 119.47531 26619 ft 505 kts 27°
2026-04-16 14:31 34.83658 119.49782 26619 ft 505 kts 27°
2026-04-16 14:31 34.86646 119.52039 26621 ft 506 kts 27°
2026-04-16 14:31 34.89634 119.54300 26622 ft 506 kts 27°
2026-04-16 14:32 34.92624 119.56560 26623 ft 506 kts 27°
2026-04-16 14:32 34.95615 119.58821 26621 ft 506 kts 27°
2026-04-16 14:32 34.98610 119.61085 26620 ft 507 kts 27°
2026-04-16 14:32 35.01612 119.63352 26623 ft 507 kts 27°
2026-04-16 14:33 35.04604 119.65610 26621 ft 507 kts 27°
2026-04-16 14:33 35.07607 119.67880 26621 ft 507 kts 27°
2026-04-16 14:33 35.10603 119.70151 26623 ft 508 kts 27°
2026-04-16 14:33 35.13605 119.72429 26624 ft 508 kts 27°
2026-04-16 14:34 35.16563 119.74677 26626 ft 508 kts 27°
2026-04-16 14:34 35.19562 119.76964 26629 ft 508 kts 27°
2026-04-16 14:34 35.22561 119.79257 26632 ft 508 kts 27°
2026-04-16 14:34 35.25560 119.81549 26630 ft 509 kts 27°
2026-04-16 14:35 35.28564 119.83843 26624 ft 509 kts 27°
2026-04-16 14:35 35.31573 119.86138 26629 ft 509 kts 27°
2026-04-16 14:35 35.34582 119.88430 26626 ft 510 kts 27°
2026-04-16 14:35 35.37590 119.90723 26629 ft 510 kts 27°
2026-04-16 14:36 35.40600 119.93023 26636 ft 510 kts 27°
2026-04-16 14:36 35.43612 119.95332 26638 ft 511 kts 27°
2026-04-16 14:36 35.46621 119.97645 26632 ft 511 kts 27°
2026-04-16 14:36 35.49637 119.99965 26629 ft 511 kts 28°
2026-04-16 14:37 35.52646 120.02282 26639 ft 511 kts 28°
2026-04-16 14:37 35.55656 120.04599 26637 ft 511 kts 28°
2026-04-16 14:37 35.58672 120.06918 26638 ft 511 kts 28°
2026-04-16 14:37 35.61684 120.09236 26637 ft 511 kts 28°
2026-04-16 14:38 35.64699 120.11563 26627 ft 512 kts 28°
2026-04-16 14:38 35.67715 120.13896 26632 ft 512 kts 28°
2026-04-16 14:38 35.70730 120.16233 26634 ft 512 kts 28°
2026-04-16 14:38 35.73703 120.18535 26631 ft 512 kts 28°
2026-04-16 14:39 35.76722 120.20865 26632 ft 513 kts 28°
2026-04-16 14:39 35.79749 120.23199 26632 ft 513 kts 28°
2026-04-16 14:39 35.82774 120.25535 26632 ft 514 kts 28°
2026-04-16 14:39 35.85799 120.27881 26631 ft 514 kts 28°
2026-04-16 14:40 35.88826 120.30235 26632 ft 515 kts 28°
2026-04-16 14:40 35.91856 120.32592 26637 ft 515 kts 28°
2026-04-16 14:40 35.94886 120.34951 26636 ft 516 kts 28°
2026-04-16 14:40 35.97923 120.37315 26638 ft 516 kts 28°
2026-04-16 14:41 35.99934 120.38883 26638 ft 517 kts 28°
2026-04-16 14:41 36.02973 120.41252 26636 ft 517 kts 28°
2026-04-16 14:41 36.06015 120.43625 26639 ft 517 kts 28°
2026-04-16 14:41 36.09169 120.45729 26638 ft 513 kts 19°
2026-04-16 14:42 36.12492 120.47248 26639 ft 507 kts 11°
2026-04-16 14:42 36.15911 120.48162 26638 ft 501 kts
2026-04-16 14:42 36.19368 120.48500 26637 ft 496 kts 356°
2026-04-16 14:42 36.22811 120.48679 26639 ft 497 kts 356°
2026-04-16 14:43 36.26269 120.48867 26643 ft 498 kts 356°
2026-04-16 14:43 36.29725 120.49063 26638 ft 498 kts 356°
2026-04-16 14:43 36.33194 120.49264 26642 ft 499 kts 356°
2026-04-16 14:43 36.36663 120.49617 26639 ft 504 kts
2026-04-16 14:44 36.40111 120.50571 26643 ft 511 kts 12°
2026-04-16 14:44 36.43473 120.52074 26640 ft 515 kts 16°
2026-04-16 14:44 36.46828 120.53651 26637 ft 515 kts 16°
2026-04-16 14:44 36.50186 120.55194 26639 ft 514 kts 13°
2026-04-16 14:45 36.53576 120.56297 26641 ft 508 kts
2026-04-16 14:45 36.57058 120.56940 26642 ft 506 kts
2026-04-16 14:45 36.60541 120.57531 26642 ft 506 kts
2026-04-16 14:45 36.64036 120.58128 26642 ft 506 kts
2026-04-16 14:46 36.67530 120.58731 26644 ft 507 kts
2026-04-16 14:46 36.71022 120.59337 26646 ft 507 kts
2026-04-16 14:46 36.74515 120.59946 26647 ft 508 kts
2026-04-16 14:46 36.78017 120.60554 26649 ft 508 kts
2026-04-16 14:47 36.81521 120.61162 26647 ft 508 kts
2026-04-16 14:47 36.85021 120.61770 26653 ft 509 kts
2026-04-16 14:47 36.88529 120.62382 26651 ft 509 kts
2026-04-16 14:47 36.92038 120.62994 26657 ft 509 kts
2026-04-16 14:48 36.95541 120.63614 26662 ft 509 kts
2026-04-16 14:48 36.99047 120.64256 26658 ft 509 kts
2026-04-16 14:48 37.02552 120.64913 26660 ft 510 kts
2026-04-16 14:48 37.06058 120.65578 26662 ft 510 kts
2026-04-16 14:49 37.09568 120.66249 26661 ft 510 kts
2026-04-16 14:49 37.13069 120.66917 26663 ft 509 kts
2026-04-16 14:49 37.16573 120.67578 26664 ft 509 kts
2026-04-16 14:49 37.20077 120.68229 26663 ft 509 kts
2026-04-16 14:50 37.23543 120.68866 26333 ft 510 kts
2026-04-16 14:50 37.27059 120.69518 25772 ft 510 kts
2026-04-16 14:50 37.30540 120.70173 25248 ft 503 kts
2026-04-16 14:50 37.33983 120.70824 24754 ft 498 kts
2026-04-16 14:51 37.37396 120.71470 24271 ft 494 kts
2026-04-16 14:51 37.40782 120.72111 23792 ft 489 kts
2026-04-16 14:51 37.44126 120.72742 23261 ft 484 kts
2026-04-16 14:51 37.47444 120.73370 22698 ft 479 kts
2026-04-16 14:53 37.69246 120.76840 19051 ft 427 kts
2026-04-16 14:53 37.72177 120.77133 18796 ft 417 kts
2026-04-16 14:54 37.75044 120.77437 18744 ft 413 kts
2026-04-16 14:54 37.77903 120.77756 18721 ft 413 kts
2026-04-16 14:54 37.80722 120.78086 18331 ft 409 kts
2026-04-16 14:54 37.83527 120.78428 17928 ft 401 kts
2026-04-16 14:55 37.86277 120.78770 17534 ft 394 kts
2026-04-16 14:55 37.88990 120.79105 17140 ft 389 kts
2026-04-16 14:55 37.91671 120.79434 16757 ft 386 kts
2026-04-16 14:55 37.94334 120.79756 16383 ft 383 kts
2026-04-16 14:56 37.96981 120.80109 16055 ft 383 kts
2026-04-16 14:56 37.99587 120.80806 15736 ft 383 kts 12°
2026-04-16 14:56 38.02107 120.81914 15420 ft 384 kts 20°
2026-04-16 14:56 38.04499 120.83419 15107 ft 384 kts 28°
2026-04-16 14:57 38.06791 120.85151 14791 ft 383 kts 28°
2026-04-16 14:57 38.09078 120.86869 14481 ft 381 kts 28°
2026-04-16 14:57 38.11355 120.88571 14172 ft 379 kts 28°
2026-04-16 14:57 38.13622 120.90267 13872 ft 376 kts 28°
2026-04-16 14:58 38.15852 120.91941 13530 ft 368 kts 28°
2026-04-16 14:58 38.20189 120.95248 12887 ft 361 kts 33°
2026-04-16 14:58 38.22186 120.97190 12854 ft 362 kts 41°
2026-04-16 14:59 38.23995 120.99427 12866 ft 363 kts 48°
2026-04-16 14:59 38.25588 121.01914 12865 ft 362 kts 54°
2026-04-16 14:59 38.26970 121.04505 12864 ft 345 kts 62°
2026-04-16 14:59 38.28056 121.07109 12864 ft 331 kts 64°
2026-04-16 15:00 38.29100 121.09695 12866 ft 328 kts 64°
2026-04-16 15:00 38.30139 121.12280 12869 ft 328 kts 64°
2026-04-16 15:00 38.31177 121.14862 12866 ft 328 kts 64°
2026-04-16 15:00 38.32216 121.17447 12870 ft 328 kts 64°
2026-04-16 15:01 38.33206 121.20065 12870 ft 328 kts 68°
2026-04-16 15:01 38.34100 121.22740 12692 ft 329 kts 69°
2026-04-16 15:01 38.34957 121.25431 12359 ft 327 kts 71°
2026-04-16 15:01 38.35789 121.28111 12030 ft 324 kts 71°
2026-04-16 15:02 38.36610 121.30779 11702 ft 322 kts 72°
2026-04-16 15:02 38.37425 121.33427 11374 ft 320 kts 72°
2026-04-16 15:02 38.38241 121.36053 11050 ft 318 kts 72°
2026-04-16 15:02 38.39056 121.38665 10737 ft 316 kts 72°
2026-04-16 15:03 38.40000 121.41196 10423 ft 318 kts 63°
2026-04-16 15:03 38.41309 121.43474 10106 ft 320 kts 51°
2026-04-16 15:03 38.42944 121.45406 9836 ft 320 kts 39°
2026-04-16 15:03 38.44814 121.46884 9792 ft 313 kts 28°
2026-04-16 15:04 38.46848 121.47898 9803 ft 312 kts 17°
2026-04-16 15:04 38.48896 121.48646 9782 ft 301 kts 17°
2026-04-16 15:04 38.50904 121.49379 9487 ft 299 kts 17°
2026-04-16 15:04 38.52900 121.50112 9199 ft 298 kts 17°
2026-04-16 15:05 38.54894 121.50845 8910 ft 297 kts 16°
2026-04-16 15:05 38.56918 121.51342 8626 ft 296 kts
2026-04-16 15:05 38.58933 121.51634 8353 ft 295 kts
2026-04-16 15:05 38.60954 121.51934 8075 ft 290 kts
2026-04-16 15:06 38.62937 121.52234 7797 ft 285 kts
2026-04-16 15:06 38.64901 121.52531 7513 ft 284 kts
2026-04-16 15:06 38.66863 121.52827 7240 ft 284 kts
2026-04-16 15:06 38.68860 121.53127 6989 ft 292 kts
2026-04-16 15:07 38.70885 121.53429 6894 ft 293 kts
2026-04-16 15:07 38.72919 121.53733 6910 ft 295 kts
2026-04-16 15:07 38.74960 121.54038 6910 ft 295 kts
2026-04-16 15:07 38.76999 121.54342 6910 ft 295 kts
2026-04-16 15:08 38.79039 121.54645 6912 ft 295 kts
2026-04-16 15:08 38.81081 121.54951 6911 ft 295 kts
2026-04-16 15:08 38.83114 121.55298 6905 ft 293 kts 12°
2026-04-16 15:08 38.84912 121.56338 6907 ft 277 kts 39°
2026-04-16 15:09 38.86156 121.58104 6907 ft 259 kts 64°
2026-04-16 15:09 38.86748 121.60158 6908 ft 243 kts 85°
2026-04-16 15:09 38.86768 121.62280 6912 ft 236 kts 101°
2026-04-16 15:09 38.86600 121.64385 6800 ft 239 kts 100°
2026-04-16 15:10 38.86433 121.66507 6523 ft 239 kts 100°
2026-04-16 15:10 38.86268 121.68623 6247 ft 238 kts 100°
2026-04-16 15:10 38.86102 121.70732 5967 ft 237 kts 99°
2026-04-16 15:10 38.85936 121.72825 5681 ft 235 kts 99°
2026-04-16 15:11 38.85771 121.74906 5396 ft 234 kts 99°
2026-04-16 15:11 38.85607 121.76973 5125 ft 232 kts 99°
2026-04-16 15:11 38.85444 121.79031 4851 ft 231 kts 98°
2026-04-16 15:11 38.85283 121.81076 4568 ft 230 kts 98°
2026-04-16 15:12 38.85123 121.83111 4280 ft 229 kts 98°
2026-04-16 15:12 38.84964 121.85141 3998 ft 228 kts 98°
2026-04-16 15:12 38.84806 121.87159 3722 ft 227 kts 98°
2026-04-16 15:12 38.84647 121.89173 3443 ft 226 kts 97°
2026-04-16 15:13 38.84492 121.91177 3167 ft 225 kts 97°
2026-04-16 15:13 38.84359 121.93173 2886 ft 225 kts 91°
2026-04-16 15:13 38.84778 121.95076 2608 ft 224 kts 55°
2026-04-16 15:13 38.85921 121.96331 2337 ft 220 kts 20°
2026-04-16 15:14 38.87397 121.96687 2075 ft 214 kts 353°
2026-04-16 15:14 38.88763 121.96166 1991 ft 198 kts 325°
2026-04-16 15:14 38.89752 121.95029 2026 ft 188 kts 309°
2026-04-16 15:14 38.90629 121.93791 2009 ft 186 kts 309°
2026-04-16 15:15 38.91494 121.92570 2004 ft 185 kts 309°
2026-04-16 15:15 38.92361 121.91344 2000 ft 185 kts 309°
2026-04-16 15:15 38.93195 121.90087 2001 ft 184 kts 301°
2026-04-16 15:15 38.93755 121.88627 2004 ft 181 kts 283°
2026-04-16 15:16 38.93958 121.87041 2003 ft 180 kts 274°
2026-04-16 15:16 38.94090 121.85441 2005 ft 180 kts 274°
2026-04-16 15:16 38.94219 121.83837 2008 ft 181 kts 274°
2026-04-16 15:16 38.94347 121.82230 2008 ft 181 kts 274°
2026-04-16 15:17 38.94474 121.80625 2008 ft 181 kts 274°
2026-04-16 15:17 38.94602 121.79017 2010 ft 181 kts 274°
2026-04-16 15:17 38.94729 121.77411 2011 ft 181 kts 274°
2026-04-16 15:17 38.94856 121.75804 2007 ft 181 kts 274°
2026-04-16 15:18 38.94983 121.74192 2010 ft 181 kts 274°
2026-04-16 15:18 38.95108 121.72607 2011 ft 181 kts 274°
2026-04-16 15:18 38.95234 121.70995 2008 ft 180 kts 274°
2026-04-16 15:18 38.95355 121.69472 2031 ft 166 kts 274°
2026-04-16 15:19 38.95469 121.68012 1983 ft 163 kts 274°
2026-04-16 15:19 38.95581 121.66568 1831 ft 162 kts 274°
2026-04-16 15:19 38.95694 121.65130 1635 ft 161 kts 274°
2026-04-16 15:19 38.95805 121.63696 1420 ft 162 kts 274°
2026-04-16 15:20 38.95917 121.62258 1208 ft 162 kts 274°
2026-04-16 15:20 38.96027 121.60823 989 ft 162 kts 274°
2026-04-16 15:20 38.96147 121.59386 752 ft 162 kts 275°
2026-04-16 15:20 38.96243 121.57953 530 ft 160 kts 275°
2026-04-16 15:21 38.96351 121.56533 336 ft 159 kts 276°
2026-04-16 15:21 38.96455 121.55124 139 ft 158 kts 276°
2026-04-16 15:21 38.96547 121.53891 119 ft 123 kts 278°
2026-04-16 15:21 38.96624 121.52992 116 ft 77 kts 276°
2026-04-16 15:22 38.96659 121.52528 116 ft 27 kts 275°
2026-04-16 15:22 38.96676 121.52310 116 ft 25 kts 276°
2026-04-16 15:22 38.96693 121.52089 116 ft 22 kts 276°
2026-04-16 15:22 38.96686 121.51974 116 ft 10 kts 234°
2026-04-16 15:23 38.96622 121.51952 114 ft 6 kts 185°
2026-04-16 15:23 38.96576 121.51947 114 ft 7 kts 185°
2026-04-16 15:23 38.96524 121.51944 114 ft 5 kts 165°
2026-04-16 15:23 38.96503 121.51992 116 ft 8 kts 97°
2026-04-16 15:24 38.96499 121.52070 116 ft 10 kts 95°
2026-04-16 15:24 38.96490 121.52168 116 ft 12 kts 96°
2026-04-16 15:24 38.96481 121.52288 116 ft 15 kts 96°
2026-04-16 15:24 38.96470 121.52431 115 ft 17 kts 96°
2026-04-16 15:25 38.96456 121.52597 116 ft 20 kts 95°
2026-04-16 15:25 38.96441 121.52787 116 ft 23 kts 96°
2026-04-16 15:25 38.96425 121.52989 113 ft 18 kts 95°
2026-04-16 15:25 38.96412 121.53152 114 ft 18 kts 96°
2026-04-16 15:26 38.96421 121.53306 116 ft 18 kts 85°
2026-04-16 15:26 38.96412 121.53461 113 ft 18 kts 96°
2026-04-16 15:26 38.96400 121.53623 116 ft 16 kts 95°
2026-04-16 15:26 38.96392 121.53724 116 ft 5 kts 95°
2026-04-16 15:27 38.96390 121.53749 116 ft 0 kts 96°
2026-04-16 15:27 38.96390 121.53752 116 ft 1 kts 96°
2026-04-16 15:27 38.96378 121.53780 114 ft 6 kts 135°
2026-04-16 15:27 38.96333 121.53790 114 ft 6 kts 184°
2026-04-16 15:28 38.96293 121.53787 114 ft 5 kts 182°
2026-04-16 15:28 38.96261 121.53786 114 ft 4 kts 182°
2026-04-16 15:28 38.96238 121.53785 114 ft 2 kts 182°
2026-04-16 15:28 38.96236 121.53784 114 ft 0 kts 182°